Year,Month,Day,Hour,Minute,Value (Times are PST for temperature in C)
2016,09,24,00,00,6.80
2016,09,24,00,01,6.80
2016,09,24,00,02,6.80
2016,09,24,00,03,6.80
2016,09,24,00,04,6.80
2016,09,24,00,05,6.80
2016,09,24,00,06,6.80
2016,09,24,00,07,6.80
2016,09,24,00,08,6.70
2016,09,24,00,09,6.70
2016,09,24,00,10,6.70
2016,09,24,00,11,6.70
2016,09,24,00,12,6.70
2016,09,24,00,13,6.70
2016,09,24,00,14,6.70
2016,09,24,00,15,6.70
2016,09,24,00,16,6.70
2016,09,24,00,17,6.70
2016,09,24,00,18,6.70
2016,09,24,00,19,6.70
2016,09,24,00,20,6.60
2016,09,24,00,21,6.60
2016,09,24,00,22,6.60
2016,09,24,00,23,6.60
2016,09,24,00,24,6.60
2016,09,24,00,25,6.60
2016,09,24,00,26,6.60
2016,09,24,00,27,6.50
2016,09,24,00,28,6.50
2016,09,24,00,29,6.50
2016,09,24,00,30,6.50
2016,09,24,00,31,6.50
2016,09,24,00,32,6.50
2016,09,24,00,33,6.40
2016,09,24,00,34,6.40
2016,09,24,00,35,6.40
2016,09,24,00,36,6.40
2016,09,24,00,37,6.40
2016,09,24,00,38,6.40
2016,09,24,00,39,6.40
2016,09,24,00,40,6.40
2016,09,24,00,41,6.40
2016,09,24,00,42,6.40
2016,09,24,00,43,6.40
2016,09,24,00,44,6.40
2016,09,24,00,45,6.40
2016,09,24,00,46,6.30
2016,09,24,00,47,6.30
2016,09,24,00,48,6.30
2016,09,24,00,49,6.30
2016,09,24,00,50,6.30
2016,09,24,00,51,6.30
2016,09,24,00,52,6.30
2016,09,24,00,53,6.30
2016,09,24,00,54,6.20
2016,09,24,00,55,6.20
2016,09,24,00,56,6.20
2016,09,24,00,57,6.20
2016,09,24,00,58,6.10
2016,09,24,00,59,6.10
2016,09,24,01,00,6.10
2016,09,24,01,01,6.10
2016,09,24,01,02,6.10
2016,09,24,01,03,6.10
2016,09,24,01,04,6.00
2016,09,24,01,05,6.00
2016,09,24,01,06,6.00
2016,09,24,01,07,6.00
2016,09,24,01,08,6.00
2016,09,24,01,09,5.90
2016,09,24,01,10,5.90
2016,09,24,01,11,5.90
2016,09,24,01,12,5.90
2016,09,24,01,13,5.90
2016,09,24,01,14,5.90
2016,09,24,01,15,5.90
2016,09,24,01,16,5.80
2016,09,24,01,17,5.80
2016,09,24,01,18,5.80
2016,09,24,01,19,5.80
2016,09,24,01,20,5.80
2016,09,24,01,21,5.80
2016,09,24,01,22,5.80
2016,09,24,01,23,5.80
2016,09,24,01,24,5.80
2016,09,24,01,25,5.80
2016,09,24,01,26,5.70
2016,09,24,01,27,5.70
2016,09,24,01,28,5.70
2016,09,24,01,29,5.70
2016,09,24,01,30,5.70
2016,09,24,01,31,5.70
2016,09,24,01,32,5.70
2016,09,24,01,33,5.70
2016,09,24,01,34,5.70
2016,09,24,01,35,5.60
2016,09,24,01,36,5.60
2016,09,24,01,37,5.60
2016,09,24,01,38,5.60
2016,09,24,01,39,5.60
2016,09,24,01,40,5.60
2016,09,24,01,41,5.60
2016,09,24,01,42,5.60
2016,09,24,01,43,5.60
2016,09,24,01,44,5.60
2016,09,24,01,45,5.60
2016,09,24,01,46,5.60
2016,09,24,01,47,5.60
2016,09,24,01,48,5.60
2016,09,24,01,49,5.60
2016,09,24,01,50,5.60
2016,09,24,01,51,5.60
2016,09,24,01,52,5.60
2016,09,24,01,53,5.60
2016,09,24,01,54,5.60
2016,09,24,01,55,5.50
2016,09,24,01,56,5.50
2016,09,24,01,57,5.50
2016,09,24,01,58,5.50
2016,09,24,01,59,5.50
2016,09,24,02,00,5.50
2016,09,24,02,01,5.40
2016,09,24,02,02,5.40
2016,09,24,02,03,5.40
2016,09,24,02,04,5.40
2016,09,24,02,05,5.40
2016,09,24,02,06,5.40
2016,09,24,02,07,5.40
2016,09,24,02,08,5.30
2016,09,24,02,09,5.40
2016,09,24,02,10,5.40
2016,09,24,02,11,5.40
2016,09,24,02,12,5.40
2016,09,24,02,13,5.30
2016,09,24,02,14,5.30
2016,09,24,02,15,5.30
2016,09,24,02,16,5.30
2016,09,24,02,17,5.40
2016,09,24,02,18,5.40
2016,09,24,02,19,5.40
2016,09,24,02,20,5.40
2016,09,24,02,21,5.40
2016,09,24,02,22,5.40
2016,09,24,02,23,5.40
2016,09,24,02,24,5.40
2016,09,24,02,25,5.40
2016,09,24,02,26,5.40
2016,09,24,02,27,5.40
2016,09,24,02,28,5.40
2016,09,24,02,29,5.40
2016,09,24,02,30,5.40
2016,09,24,02,31,5.40
2016,09,24,02,32,5.40
2016,09,24,02,33,5.40
2016,09,24,02,34,5.40
2016,09,24,02,35,5.40
2016,09,24,02,36,5.40
2016,09,24,02,37,5.40
2016,09,24,02,38,5.40
2016,09,24,02,39,5.40
2016,09,24,02,40,5.40
2016,09,24,02,41,5.40
2016,09,24,02,42,5.40
2016,09,24,02,43,5.40
2016,09,24,02,44,5.40
2016,09,24,02,45,5.40
2016,09,24,02,46,5.30
2016,09,24,02,47,5.30
2016,09,24,02,48,5.30
2016,09,24,02,49,5.30
2016,09,24,02,50,5.30
2016,09,24,02,51,5.30
2016,09,24,02,52,5.30
2016,09,24,02,53,5.30
2016,09,24,02,54,5.30
2016,09,24,02,55,5.30
2016,09,24,02,56,5.30
2016,09,24,02,57,5.30
2016,09,24,02,58,5.30
2016,09,24,02,59,5.30
2016,09,24,03,00,5.30
2016,09,24,03,01,5.30
2016,09,24,03,02,5.30
2016,09,24,03,03,5.30
2016,09,24,03,04,5.30
2016,09,24,03,05,5.30
2016,09,24,03,06,5.30
2016,09,24,03,07,5.30
2016,09,24,03,08,5.30
2016,09,24,03,09,5.20
2016,09,24,03,10,5.20
2016,09,24,03,11,5.20
2016,09,24,03,12,5.20
2016,09,24,03,13,5.20
2016,09,24,03,14,5.20
2016,09,24,03,15,5.20
2016,09,24,03,16,5.20
2016,09,24,03,17,5.20
2016,09,24,03,18,5.20
2016,09,24,03,19,5.20
2016,09,24,03,20,5.20
2016,09,24,03,21,5.20
2016,09,24,03,22,5.20
2016,09,24,03,23,5.20
2016,09,24,03,24,5.20
2016,09,24,03,25,5.20
2016,09,24,03,26,5.20
2016,09,24,03,27,5.20
2016,09,24,03,28,5.20
2016,09,24,03,29,5.20
2016,09,24,03,30,5.20
2016,09,24,03,31,5.30
2016,09,24,03,32,5.30
2016,09,24,03,33,5.30
2016,09,24,03,34,5.30
2016,09,24,03,35,5.30
2016,09,24,03,36,5.30
2016,09,24,03,37,5.30
2016,09,24,03,38,5.30
2016,09,24,03,39,5.30
2016,09,24,03,40,5.30
2016,09,24,03,41,5.30
2016,09,24,03,42,5.30
2016,09,24,03,43,5.30
2016,09,24,03,44,5.30
2016,09,24,03,45,5.30
2016,09,24,03,46,5.30
2016,09,24,03,47,5.30
2016,09,24,03,48,5.30
2016,09,24,03,49,5.20
2016,09,24,03,50,5.20
2016,09,24,03,51,5.20
2016,09,24,03,52,5.20
2016,09,24,03,53,5.20
2016,09,24,03,54,5.20
2016,09,24,03,55,5.20
2016,09,24,03,56,5.20
2016,09,24,03,57,5.20
2016,09,24,03,58,5.20
2016,09,24,03,59,5.20
2016,09,24,04,00,5.20
2016,09,24,04,01,5.20
2016,09,24,04,02,5.20
2016,09,24,04,03,5.20
2016,09,24,04,04,5.10
2016,09,24,04,05,5.10
2016,09,24,04,06,5.10
2016,09,24,04,07,5.10
2016,09,24,04,08,5.10
2016,09,24,04,09,5.10
2016,09,24,04,10,5.10
2016,09,24,04,11,5.00
2016,09,24,04,12,5.00
2016,09,24,04,13,5.10
2016,09,24,04,14,5.10
2016,09,24,04,15,5.10
2016,09,24,04,16,5.10
2016,09,24,04,17,5.10
2016,09,24,04,18,5.10
2016,09,24,04,19,5.10
2016,09,24,04,20,5.10
2016,09,24,04,21,5.10
2016,09,24,04,22,5.10
2016,09,24,04,23,5.10
2016,09,24,04,24,5.10
2016,09,24,04,25,5.10
2016,09,24,04,26,5.10
2016,09,24,04,27,5.10
2016,09,24,04,28,5.10
2016,09,24,04,29,5.10
2016,09,24,04,30,5.10
2016,09,24,04,31,5.10
2016,09,24,04,32,5.10
2016,09,24,04,33,5.10
2016,09,24,04,34,5.10
2016,09,24,04,35,5.20
2016,09,24,04,36,5.20
2016,09,24,04,37,5.20
2016,09,24,04,38,5.20
2016,09,24,04,39,5.20
2016,09,24,04,40,5.20
2016,09,24,04,41,5.20
2016,09,24,04,42,5.20
2016,09,24,04,43,5.20
2016,09,24,04,44,5.20
2016,09,24,04,45,5.20
2016,09,24,04,46,5.30
2016,09,24,04,47,5.30
2016,09,24,04,48,5.30
2016,09,24,04,49,5.30
2016,09,24,04,50,5.30
2016,09,24,04,51,5.30
2016,09,24,04,52,5.30
2016,09,24,04,53,5.30
2016,09,24,04,54,5.30
2016,09,24,04,55,5.30
2016,09,24,04,56,5.30
2016,09,24,04,57,5.30
2016,09,24,04,58,5.30
2016,09,24,04,59,5.30
2016,09,24,05,00,5.30
2016,09,24,05,01,5.30
2016,09,24,05,02,5.30
2016,09,24,05,03,5.30
2016,09,24,05,04,5.30
2016,09,24,05,05,5.30
2016,09,24,05,06,5.30
2016,09,24,05,07,5.30
2016,09,24,05,08,5.30
2016,09,24,05,09,5.30
2016,09,24,05,10,5.30
2016,09,24,05,11,5.30
2016,09,24,05,12,5.30
2016,09,24,05,13,5.40
2016,09,24,05,14,5.40
2016,09,24,05,15,5.40
2016,09,24,05,16,5.40
2016,09,24,05,17,5.40
2016,09,24,05,18,5.40
2016,09,24,05,19,5.40
2016,09,24,05,20,5.40
2016,09,24,05,21,5.40
2016,09,24,05,22,5.40
2016,09,24,05,23,5.40
2016,09,24,05,24,5.40
2016,09,24,05,25,5.40
2016,09,24,05,26,5.40
2016,09,24,05,27,5.50
2016,09,24,05,28,5.50
2016,09,24,05,29,5.50
2016,09,24,05,30,5.50
2016,09,24,05,31,5.60
2016,09,24,05,32,5.60
2016,09,24,05,33,5.60
2016,09,24,05,34,5.60
2016,09,24,05,35,5.60
2016,09,24,05,36,5.60
2016,09,24,05,37,5.60
2016,09,24,05,38,5.60
2016,09,24,05,39,5.60
2016,09,24,05,40,5.60
2016,09,24,05,41,5.70
2016,09,24,05,42,5.70
2016,09,24,05,43,5.70
2016,09,24,05,44,5.70
2016,09,24,05,45,5.80
2016,09,24,05,46,5.80
2016,09,24,05,47,5.80
2016,09,24,05,48,5.80
2016,09,24,05,49,5.80
2016,09,24,05,50,5.80
2016,09,24,05,51,5.90
2016,09,24,05,52,5.90
2016,09,24,05,53,5.90
2016,09,24,05,54,5.90
2016,09,24,05,55,5.90
2016,09,24,05,56,5.90
2016,09,24,05,57,6.00
2016,09,24,05,58,6.00
2016,09,24,05,59,6.00
2016,09,24,06,00,6.00
2016,09,24,06,01,6.10
2016,09,24,06,02,6.10
2016,09,24,06,03,6.10
2016,09,24,06,04,6.10
2016,09,24,06,05,6.10
2016,09,24,06,06,6.10
2016,09,24,06,07,6.10
2016,09,24,06,08,6.10
2016,09,24,06,09,6.20
2016,09,24,06,10,6.20
2016,09,24,06,11,6.20
2016,09,24,06,12,6.20
2016,09,24,06,13,6.20
2016,09,24,06,14,6.20
2016,09,24,06,15,6.20
2016,09,24,06,16,6.20
2016,09,24,06,17,6.20
2016,09,24,06,18,6.20
2016,09,24,06,19,6.30
2016,09,24,06,20,6.30
2016,09,24,06,21,6.30
2016,09,24,06,22,6.30
2016,09,24,06,23,6.30
2016,09,24,06,24,6.30
2016,09,24,06,25,6.30
2016,09,24,06,26,6.30
2016,09,24,06,27,6.30
2016,09,24,06,28,6.30
2016,09,24,06,29,6.30
2016,09,24,06,30,6.30
2016,09,24,06,31,6.30
2016,09,24,06,32,6.30
2016,09,24,06,33,6.30
2016,09,24,06,34,6.30
2016,09,24,06,35,6.30
2016,09,24,06,36,6.30
2016,09,24,06,37,6.30
2016,09,24,06,38,6.30
2016,09,24,06,39,6.30
2016,09,24,06,40,6.30
2016,09,24,06,41,6.30
2016,09,24,06,42,6.30
2016,09,24,06,43,6.30
2016,09,24,06,44,6.30
2016,09,24,06,45,6.30
2016,09,24,06,46,6.30
2016,09,24,06,47,6.30
2016,09,24,06,48,6.30
2016,09,24,06,49,6.30
2016,09,24,06,50,6.30
2016,09,24,06,51,6.20
2016,09,24,06,52,6.20
2016,09,24,06,53,6.20
2016,09,24,06,54,6.20
2016,09,24,06,55,6.20
2016,09,24,06,56,6.20
2016,09,24,06,57,6.20
2016,09,24,06,58,6.20
2016,09,24,06,59,6.20
2016,09,24,07,00,6.20
2016,09,24,07,01,6.20
2016,09,24,07,02,6.20
2016,09,24,07,03,6.10
2016,09,24,07,04,6.10
2016,09,24,07,05,6.10
2016,09,24,07,06,6.10
2016,09,24,07,07,6.10
2016,09,24,07,08,6.10
2016,09,24,07,09,6.10
2016,09,24,07,10,6.10
2016,09,24,07,11,6.10
2016,09,24,07,12,6.10
2016,09,24,07,13,6.10
2016,09,24,07,14,6.00
2016,09,24,07,15,6.00
2016,09,24,07,16,6.00
2016,09,24,07,17,6.00
2016,09,24,07,18,6.00
2016,09,24,07,19,6.00
2016,09,24,07,20,6.00
2016,09,24,07,21,6.00
2016,09,24,07,22,6.00
2016,09,24,07,23,6.00
2016,09,24,07,24,6.00
2016,09,24,07,25,6.00
2016,09,24,07,26,6.00
2016,09,24,07,27,6.00
2016,09,24,07,28,6.00
2016,09,24,07,29,6.00
2016,09,24,07,30,6.00
2016,09,24,07,31,6.00
2016,09,24,07,32,6.00
2016,09,24,07,33,6.00
2016,09,24,07,34,6.00
2016,09,24,07,35,6.00
2016,09,24,07,36,6.00
2016,09,24,07,37,6.00
2016,09,24,07,38,6.00
2016,09,24,07,39,6.00
2016,09,24,07,40,6.00
2016,09,24,07,41,6.00
2016,09,24,07,42,6.00
2016,09,24,07,43,6.00
2016,09,24,07,44,6.00
2016,09,24,07,45,6.00
2016,09,24,07,46,6.00
2016,09,24,07,47,6.10
2016,09,24,07,48,6.10
2016,09,24,07,49,6.10
2016,09,24,07,50,6.10
2016,09,24,07,51,6.10
2016,09,24,07,52,6.20
2016,09,24,07,53,6.20
2016,09,24,07,54,6.20
2016,09,24,07,55,6.20
2016,09,24,07,56,6.20
2016,09,24,07,57,6.20
2016,09,24,07,58,6.20
2016,09,24,07,59,6.20
2016,09,24,08,00,6.30
2016,09,24,08,01,6.30
2016,09,24,08,02,6.30
2016,09,24,08,03,6.30
2016,09,24,08,04,6.30
2016,09,24,08,05,6.30
2016,09,24,08,06,6.30
2016,09,24,08,07,6.30
2016,09,24,08,08,6.30
2016,09,24,08,09,6.30
2016,09,24,08,10,6.40
2016,09,24,08,11,6.40
2016,09,24,08,12,6.40
2016,09,24,08,13,6.40
2016,09,24,08,14,6.40
2016,09,24,08,15,6.40
2016,09,24,08,16,6.50
2016,09,24,08,17,6.50
2016,09,24,08,18,6.50
2016,09,24,08,19,6.60
2016,09,24,08,20,6.60
2016,09,24,08,21,6.60
2016,09,24,08,22,6.60
2016,09,24,08,23,6.70
2016,09,24,08,24,6.70
2016,09,24,08,25,6.70
2016,09,24,08,26,6.70
2016,09,24,08,27,6.70
2016,09,24,08,28,6.80
2016,09,24,08,29,6.80
2016,09,24,08,30,6.80
2016,09,24,08,31,6.80
2016,09,24,08,32,6.80
2016,09,24,08,33,6.80
2016,09,24,08,34,6.80
2016,09,24,08,35,6.90
2016,09,24,08,36,6.90
2016,09,24,08,37,6.90
2016,09,24,08,38,6.90
2016,09,24,08,39,6.90
2016,09,24,08,40,7.00
2016,09,24,08,41,7.00
2016,09,24,08,42,7.00
2016,09,24,08,43,7.10
2016,09,24,08,44,7.10
2016,09,24,08,45,7.10
2016,09,24,08,46,7.10
2016,09,24,08,47,7.10
2016,09,24,08,48,7.20
2016,09,24,08,49,7.20
2016,09,24,08,50,7.20
2016,09,24,08,51,7.30
2016,09,24,08,52,7.30
2016,09,24,08,53,7.30
2016,09,24,08,54,7.30
2016,09,24,08,55,7.40
2016,09,24,08,56,7.40
2016,09,24,08,57,7.40
2016,09,24,08,58,7.40
2016,09,24,08,59,7.40
2016,09,24,09,00,7.40
2016,09,24,09,01,7.40
2016,09,24,09,02,7.40
2016,09,24,09,03,7.50
2016,09,24,09,04,7.50
2016,09,24,09,05,7.50
2016,09,24,09,06,7.50
2016,09,24,09,07,7.50
2016,09,24,09,08,7.50
2016,09,24,09,09,7.50
2016,09,24,09,10,7.60
2016,09,24,09,11,7.60
2016,09,24,09,12,7.60
2016,09,24,09,13,7.60
2016,09,24,09,14,7.60
2016,09,24,09,15,7.60
2016,09,24,09,16,7.70
2016,09,24,09,17,7.70
2016,09,24,09,18,7.70
2016,09,24,09,19,7.70
2016,09,24,09,20,7.70
2016,09,24,09,21,7.80
2016,09,24,09,22,7.80
2016,09,24,09,23,7.80
2016,09,24,09,24,7.80
2016,09,24,09,25,7.90
2016,09,24,09,26,7.90
2016,09,24,09,27,7.90
2016,09,24,09,28,7.90
2016,09,24,09,29,8.00
2016,09,24,09,30,8.00
2016,09,24,09,31,8.10
2016,09,24,09,32,8.10
2016,09,24,09,33,8.20
2016,09,24,09,34,8.20
2016,09,24,09,35,8.30
2016,09,24,09,36,8.30
2016,09,24,09,37,8.40
2016,09,24,09,38,8.40
2016,09,24,09,39,8.40
2016,09,24,09,40,8.50
2016,09,24,09,41,8.50
2016,09,24,09,42,8.60
2016,09,24,09,43,8.60
2016,09,24,09,44,8.70
2016,09,24,09,45,8.70
2016,09,24,09,46,8.70
2016,09,24,09,47,8.70
2016,09,24,09,48,8.70
2016,09,24,09,49,8.70
2016,09,24,09,50,8.80
2016,09,24,09,51,8.80
2016,09,24,09,52,8.80
2016,09,24,09,53,8.80
2016,09,24,09,54,8.90
2016,09,24,09,55,8.90
2016,09,24,09,56,8.90
2016,09,24,09,57,9.00
2016,09,24,09,58,9.00
2016,09,24,09,59,9.00
2016,09,24,10,00,9.10
2016,09,24,10,01,9.10
2016,09,24,10,02,9.10
2016,09,24,10,03,9.10
2016,09,24,10,04,9.10
2016,09,24,10,05,9.10
2016,09,24,10,06,9.20
2016,09,24,10,07,9.10
2016,09,24,10,08,9.10
2016,09,24,10,09,9.10
2016,09,24,10,10,9.10
2016,09,24,10,11,9.10
2016,09,24,10,12,9.10
2016,09,24,10,13,9.20
2016,09,24,10,14,9.20
2016,09,24,10,15,9.20
2016,09,24,10,16,9.20
2016,09,24,10,17,9.20
2016,09,24,10,18,9.30
2016,09,24,10,19,9.30
2016,09,24,10,20,9.30
2016,09,24,10,21,9.40
2016,09,24,10,22,9.40
2016,09,24,10,23,9.40
2016,09,24,10,24,9.40
2016,09,24,10,25,9.40
2016,09,24,10,26,9.40
2016,09,24,10,27,9.40
2016,09,24,10,28,9.40
2016,09,24,10,29,9.40
2016,09,24,10,30,9.40
2016,09,24,10,31,9.40
2016,09,24,10,32,9.40
2016,09,24,10,33,9.40
2016,09,24,10,34,9.40
2016,09,24,10,35,9.40
2016,09,24,10,36,9.50
2016,09,24,10,37,9.50
2016,09,24,10,38,9.50
2016,09,24,10,39,9.50
2016,09,24,10,40,9.60
2016,09,24,10,41,9.60
2016,09,24,10,42,9.60
2016,09,24,10,43,9.60
2016,09,24,10,44,9.60
2016,09,24,10,45,9.60
2016,09,24,10,46,9.70
2016,09,24,10,47,9.70
2016,09,24,10,48,9.70
2016,09,24,10,49,9.70
2016,09,24,10,50,9.70
2016,09,24,10,51,9.80
2016,09,24,10,52,9.80
2016,09,24,10,53,9.80
2016,09,24,10,54,9.80
2016,09,24,10,55,9.80
2016,09,24,10,56,9.80
2016,09,24,10,57,9.80
2016,09,24,10,58,9.80
2016,09,24,10,59,9.90
2016,09,24,11,00,9.90
2016,09,24,11,01,9.90
2016,09,24,11,02,9.90
2016,09,24,11,03,9.90
2016,09,24,11,04,9.90
2016,09,24,11,05,10.00
2016,09,24,11,06,10.10
2016,09,24,11,07,10.20
2016,09,24,11,08,10.20
2016,09,24,11,09,10.30
2016,09,24,11,10,10.30
2016,09,24,11,11,10.40
2016,09,24,11,12,10.40
2016,09,24,11,13,10.50
2016,09,24,11,14,10.60
2016,09,24,11,15,10.60
2016,09,24,11,16,10.60
2016,09,24,11,17,10.70
2016,09,24,11,18,10.70
2016,09,24,11,19,10.70
2016,09,24,11,20,10.70
2016,09,24,11,21,10.70
2016,09,24,11,22,10.80
2016,09,24,11,23,10.80
2016,09,24,11,24,10.80
2016,09,24,11,25,10.80
2016,09,24,11,26,10.80
2016,09,24,11,27,10.80
2016,09,24,11,28,10.80
2016,09,24,11,29,10.90
2016,09,24,11,30,10.90
2016,09,24,11,31,10.90
2016,09,24,11,32,10.90
2016,09,24,11,33,10.90
2016,09,24,11,34,10.90
2016,09,24,11,35,10.90
2016,09,24,11,36,11.00
2016,09,24,11,37,11.00
2016,09,24,11,38,11.10
2016,09,24,11,39,11.10
2016,09,24,11,40,11.20
2016,09,24,11,41,11.20
2016,09,24,11,42,11.20
2016,09,24,11,43,11.30
2016,09,24,11,44,11.30
2016,09,24,11,45,11.30
2016,09,24,11,46,11.30
2016,09,24,11,47,11.30
2016,09,24,11,48,11.40
2016,09,24,11,49,11.50
2016,09,24,11,50,11.50
2016,09,24,11,51,11.50
2016,09,24,11,52,11.40
2016,09,24,11,53,11.40
2016,09,24,11,54,11.40
2016,09,24,11,55,11.40
2016,09,24,11,56,11.40
2016,09,24,11,57,11.40
2016,09,24,11,58,11.40
2016,09,24,11,59,11.40
2016,09,24,12,00,11.40
2016,09,24,12,01,11.40
2016,09,24,12,02,11.40
2016,09,24,12,03,11.30
2016,09,24,12,04,11.30
2016,09,24,12,05,11.30
2016,09,24,12,06,11.30
2016,09,24,12,07,11.30
2016,09,24,12,08,11.30
2016,09,24,12,09,11.30
2016,09,24,12,10,11.30
2016,09,24,12,11,11.30
2016,09,24,12,12,11.40
2016,09,24,12,13,11.40
2016,09,24,12,14,11.40
2016,09,24,12,15,11.40
2016,09,24,12,16,11.40
2016,09,24,12,17,11.40
2016,09,24,12,18,11.40
2016,09,24,12,19,11.40
2016,09,24,12,20,11.40
2016,09,24,12,21,11.40
2016,09,24,12,22,11.40
2016,09,24,12,23,11.40
2016,09,24,12,24,11.40
2016,09,24,12,25,11.40
2016,09,24,12,26,11.40
2016,09,24,12,27,11.40
2016,09,24,12,28,11.50
2016,09,24,12,29,11.60
2016,09,24,12,30,11.60
2016,09,24,12,31,11.60
2016,09,24,12,32,11.70
2016,09,24,12,33,11.70
2016,09,24,12,34,11.70
2016,09,24,12,35,11.70
2016,09,24,12,36,11.70
2016,09,24,12,37,11.70
2016,09,24,12,38,11.70
2016,09,24,12,39,11.80
2016,09,24,12,40,11.80
2016,09,24,12,41,11.80
2016,09,24,12,42,11.80
2016,09,24,12,43,11.80
2016,09,24,12,44,11.90
2016,09,24,12,45,11.90
2016,09,24,12,46,11.90
2016,09,24,12,47,11.90
2016,09,24,12,48,12.00
2016,09,24,12,49,12.00
2016,09,24,12,50,12.10
2016,09,24,12,51,12.10
2016,09,24,12,52,12.20
2016,09,24,12,53,12.20
2016,09,24,12,54,12.10
2016,09,24,12,55,12.20
2016,09,24,12,56,12.20
2016,09,24,12,57,12.20
2016,09,24,12,58,12.20
2016,09,24,12,59,12.30
2016,09,24,13,00,12.30
2016,09,24,13,01,12.30
2016,09,24,13,02,12.30
2016,09,24,13,03,12.30
2016,09,24,13,04,12.30
2016,09,24,13,05,12.20
2016,09,24,13,06,12.20
2016,09,24,13,07,12.20
2016,09,24,13,08,12.20
2016,09,24,13,09,12.20
2016,09,24,13,10,12.20
2016,09,24,13,11,12.30
2016,09,24,13,12,12.30
2016,09,24,13,13,12.40
2016,09,24,13,14,12.40
2016,09,24,13,15,12.40
2016,09,24,13,16,12.40
2016,09,24,13,17,12.40
2016,09,24,13,18,12.40
2016,09,24,13,19,12.40
2016,09,24,13,20,12.40
2016,09,24,13,21,12.40
2016,09,24,13,22,12.40
2016,09,24,13,23,12.40
2016,09,24,13,24,12.40
2016,09,24,13,25,12.40
2016,09,24,13,26,12.40
2016,09,24,13,27,12.40
2016,09,24,13,28,12.40
2016,09,24,13,29,12.40
2016,09,24,13,30,12.40
2016,09,24,13,31,12.40
2016,09,24,13,32,12.40
2016,09,24,13,33,12.40
2016,09,24,13,34,12.40
2016,09,24,13,35,12.40
2016,09,24,13,36,12.40
2016,09,24,13,37,12.50
2016,09,24,13,38,12.50
2016,09,24,13,39,12.50
2016,09,24,13,40,12.60
2016,09,24,13,41,12.60
2016,09,24,13,42,12.60
2016,09,24,13,43,12.60
2016,09,24,13,44,12.70
2016,09,24,13,45,12.70
2016,09,24,13,46,12.70
2016,09,24,13,47,12.80
2016,09,24,13,48,12.80
2016,09,24,13,49,12.80
2016,09,24,13,50,12.80
2016,09,24,13,51,12.80
2016,09,24,13,52,12.80
2016,09,24,13,53,12.90
2016,09,24,13,54,12.90
2016,09,24,13,55,12.90
2016,09,24,13,56,12.90
2016,09,24,13,57,12.80
2016,09,24,13,58,12.90
2016,09,24,13,59,12.90
2016,09,24,14,00,13.00
2016,09,24,14,01,13.00
2016,09,24,14,02,13.00
2016,09,24,14,03,13.10
2016,09,24,14,04,13.10
2016,09,24,14,05,13.20
2016,09,24,14,06,13.30
2016,09,24,14,07,13.40
2016,09,24,14,08,13.40
2016,09,24,14,09,13.40
2016,09,24,14,10,13.50
2016,09,24,14,11,13.50
2016,09,24,14,12,13.50
2016,09,24,14,13,13.50
2016,09,24,14,14,13.50
2016,09,24,14,15,13.40
2016,09,24,14,16,13.40
2016,09,24,14,17,13.40
2016,09,24,14,18,13.40
2016,09,24,14,19,13.40
2016,09,24,14,20,13.40
2016,09,24,14,21,13.40
2016,09,24,14,22,13.40
2016,09,24,14,23,13.40
2016,09,24,14,24,13.40
2016,09,24,14,25,13.40
2016,09,24,14,26,13.40
2016,09,24,14,27,13.40
2016,09,24,14,28,13.40
2016,09,24,14,29,13.40
2016,09,24,14,30,13.40
2016,09,24,14,31,13.40
2016,09,24,14,32,13.40
2016,09,24,14,33,13.40
2016,09,24,14,34,13.40
2016,09,24,14,35,13.40
2016,09,24,14,36,13.40
2016,09,24,14,37,13.40
2016,09,24,14,38,13.50
2016,09,24,14,39,13.50
2016,09,24,14,40,13.50
2016,09,24,14,41,13.50
2016,09,24,14,42,13.50
2016,09,24,14,43,13.50
2016,09,24,14,44,13.50
2016,09,24,14,45,13.50
2016,09,24,14,46,13.50
2016,09,24,14,47,13.40
2016,09,24,14,48,13.40
2016,09,24,14,49,13.40
2016,09,24,14,50,13.40
2016,09,24,14,51,13.40
2016,09,24,14,52,13.40
2016,09,24,14,53,13.40
2016,09,24,14,54,13.50
2016,09,24,14,55,13.50
2016,09,24,14,56,13.50
2016,09,24,14,57,13.50
2016,09,24,14,58,13.50
2016,09,24,14,59,13.50
2016,09,24,15,00,13.50
2016,09,24,15,01,13.50
2016,09,24,15,02,13.50
2016,09,24,15,03,13.50
2016,09,24,15,04,13.50
2016,09,24,15,05,13.50
2016,09,24,15,06,13.50
2016,09,24,15,07,13.50
2016,09,24,15,08,13.50
2016,09,24,15,09,13.50
2016,09,24,15,10,13.40
2016,09,24,15,11,13.40
2016,09,24,15,12,13.40
2016,09,24,15,13,13.40
2016,09,24,15,14,13.40
2016,09,24,15,15,13.40
2016,09,24,15,16,13.40
2016,09,24,15,17,13.40
2016,09,24,15,18,13.50
2016,09,24,15,19,13.50
2016,09,24,15,20,13.50
2016,09,24,15,21,13.50
2016,09,24,15,22,13.40
2016,09,24,15,23,13.40
2016,09,24,15,24,13.50
2016,09,24,15,25,13.50
2016,09,24,15,26,13.40
2016,09,24,15,27,13.40
2016,09,24,15,28,13.40
2016,09,24,15,29,13.40
2016,09,24,15,30,13.40
2016,09,24,15,31,13.40
2016,09,24,15,32,13.30
2016,09,24,15,33,13.30
2016,09,24,15,34,13.30
2016,09,24,15,35,13.30
2016,09,24,15,36,13.30
2016,09,24,15,37,13.30
2016,09,24,15,38,13.30
2016,09,24,15,39,13.30
2016,09,24,15,40,13.30
2016,09,24,15,41,13.30
2016,09,24,15,42,13.30
2016,09,24,15,43,13.20
2016,09,24,15,44,13.20
2016,09,24,15,45,13.20
2016,09,24,15,46,13.20
2016,09,24,15,47,13.20
2016,09,24,15,48,13.20
2016,09,24,15,49,13.20
2016,09,24,15,50,13.20
2016,09,24,15,51,13.20
2016,09,24,15,52,13.20
2016,09,24,15,53,13.10
2016,09,24,15,54,13.10
2016,09,24,15,55,13.10
2016,09,24,15,56,13.10
2016,09,24,15,57,13.10
2016,09,24,15,58,13.10
2016,09,24,15,59,13.10
2016,09,24,16,00,13.10
2016,09,24,16,01,13.10
2016,09,24,16,02,13.10
2016,09,24,16,03,13.10
2016,09,24,16,04,13.10
2016,09,24,16,05,13.10
2016,09,24,16,06,13.10
2016,09,24,16,07,13.10
2016,09,24,16,08,13.00
2016,09,24,16,09,13.10
2016,09,24,16,10,13.00
2016,09,24,16,11,13.00
2016,09,24,16,12,13.00
2016,09,24,16,13,13.00
2016,09,24,16,14,13.00
2016,09,24,16,15,13.00
2016,09,24,16,16,12.90
2016,09,24,16,17,12.90
2016,09,24,16,18,12.90
2016,09,24,16,19,12.90
2016,09,24,16,20,12.90
2016,09,24,16,21,12.90
2016,09,24,16,22,12.90
2016,09,24,16,23,12.90
2016,09,24,16,24,12.90
2016,09,24,16,25,12.90
2016,09,24,16,26,12.90
2016,09,24,16,27,12.80
2016,09,24,16,28,12.80
2016,09,24,16,29,12.80
2016,09,24,16,30,12.80
2016,09,24,16,31,12.80
2016,09,24,16,32,12.80
2016,09,24,16,33,12.80
2016,09,24,16,34,12.80
2016,09,24,16,35,12.80
2016,09,24,16,36,12.80
2016,09,24,16,37,12.80
2016,09,24,16,38,12.70
2016,09,24,16,39,12.70
2016,09,24,16,40,12.70
2016,09,24,16,41,12.70
2016,09,24,16,42,12.70
2016,09,24,16,43,12.70
2016,09,24,16,44,12.70
2016,09,24,16,45,12.70
2016,09,24,16,46,12.70
2016,09,24,16,47,12.60
2016,09,24,16,48,12.60
2016,09,24,16,49,12.60
2016,09,24,16,50,12.70
2016,09,24,16,51,12.70
2016,09,24,16,52,12.70
2016,09,24,16,53,12.70
2016,09,24,16,54,12.70
2016,09,24,16,55,12.60
2016,09,24,16,56,12.60
2016,09,24,16,57,12.60
2016,09,24,16,58,12.60
2016,09,24,16,59,12.60
2016,09,24,17,00,12.60
2016,09,24,17,01,12.60
2016,09,24,17,02,12.60
2016,09,24,17,03,12.60
2016,09,24,17,04,12.60
2016,09,24,17,05,12.60
2016,09,24,17,06,12.60
2016,09,24,17,07,12.60
2016,09,24,17,08,12.60
2016,09,24,17,09,12.60
2016,09,24,17,10,12.60
2016,09,24,17,11,12.60
2016,09,24,17,12,12.60
2016,09,24,17,13,12.60
2016,09,24,17,14,12.60
2016,09,24,17,15,12.60
2016,09,24,17,16,12.60
2016,09,24,17,17,12.60
2016,09,24,17,18,12.60
2016,09,24,17,19,12.60
2016,09,24,17,20,12.60
2016,09,24,17,21,12.60
2016,09,24,17,22,12.60
2016,09,24,17,23,12.60
2016,09,24,17,24,12.60
2016,09,24,17,25,12.60
2016,09,24,17,26,12.60
2016,09,24,17,27,12.60
2016,09,24,17,28,12.60
2016,09,24,17,29,12.60
2016,09,24,17,30,12.60
2016,09,24,17,31,12.60
2016,09,24,17,32,12.60
2016,09,24,17,33,12.50
2016,09,24,17,34,12.50
2016,09,24,17,35,12.50
2016,09,24,17,36,12.50
2016,09,24,17,37,12.50
2016,09,24,17,38,12.50
2016,09,24,17,39,12.50
2016,09,24,17,40,12.50
2016,09,24,17,41,12.50
2016,09,24,17,42,12.50
2016,09,24,17,43,12.50
2016,09,24,17,44,12.50
2016,09,24,17,45,12.40
2016,09,24,17,46,12.40
2016,09,24,17,47,12.40
2016,09,24,17,48,12.40